When you browse on this site, cookies collect data to enhance your experience and personalize the content and advertising you see.
Visit our Privacy Policy to learn more. By continuing to use the site, you agree to this use of cookies and data.
  • In Portugal
  • List of Countries
  • For 7 days
  • Water Temperature
  • Satellite Maps
  • Weather Map
  • Weather Widgets
  • user-avatar
    Login

    Hourly Weather Elki

    Today, 17 June, Monday

    Time Temperature Precipitation Wind Pressure Humidity
    00:00 +19°C° 0 mm 2 mps 748 mmHg 79%
    01:00 +19°C° 0 mm 2 mps 748 mmHg 79%
    02:00 +20°C° 0 mm 1 mps 748 mmHg 76%
    03:00 +19°C° 0 mm 2 mps 748 mmHg 78%
    04:00 +19°C° 0 mm 2 mps 748 mmHg 81%
    05:00 +18°C° 0 mm 2 mps 748 mmHg 84%
    06:00 +20°C° 0 mm 2 mps 748 mmHg 81%
    07:00 +21°C° 0 mm 2 mps 748 mmHg 77%
    08:00 +24°C° 0 mm 3 mps 749 mmHg 75%
    09:00 +25°C° 0 mm 3 mps 748 mmHg 72%
    10:00 +26°C° 0 mm 2 mps 748 mmHg 69%
    11:00 +27°C° 0 mm 2 mps 748 mmHg 66%
    12:00 +28°C° 0.4 mm 3 mps 748 mmHg 67%
    13:00 +28°C° 0.4 mm 3 mps 748 mmHg 69%
    14:00 +28°C° 0.4 mm 3 mps 748 mmHg 70%
    15:00 +28°C° 0.4 mm 4 mps 748 mmHg 72%
    16:00 +27°C° 0.4 mm 4 mps 748 mmHg 73%
    17:00 +27°C° 0.4 mm 5 mps 748 mmHg 74%
    18:00 +25°C° 0 mm 5 mps 748 mmHg 78%
    19:00 +22°C° 0 mm 4 mps 748 mmHg 81%
    20:00 +20°C° 0 mm 4 mps 748 mmHg 85%
    21:00 +19°C° 0 mm 4 mps 748 mmHg 88%
    22:00 +18°C° 0 mm 4 mps 748 mmHg 90%
    23:00 +17°C° 0 mm 3 mps 749 mmHg 92%

    Tomorrow, 18 June, Tuesday

    Time Temperature Precipitation Wind Pressure Humidity
    00:00 +16°C° 0 mm 3 mps 749 mmHg 94%
    01:00 +16°C° 0 mm 3 mps 749 mmHg 95%
    02:00 +16°C° 0 mm 3 mps 749 mmHg 97%
    03:00 +16°C° 0 mm 3 mps 749 mmHg 97%
    04:00 +16°C° 0 mm 3 mps 749 mmHg 97%
    05:00 +16°C° 0 mm 3 mps 749 mmHg 96%
    06:00 +17°C° 0 mm 3 mps 749 mmHg 94%
    07:00 +18°C° 0 mm 3 mps 750 mmHg 91%
    08:00 +19°C° 0 mm 4 mps 750 mmHg 88%
    09:00 +20°C° 0 mm 4 mps 750 mmHg 85%
    10:00 +20°C° 0 mm 4 mps 750 mmHg 82%
    11:00 +21°C° 0 mm 4 mps 750 mmHg 79%
    12:00 +23°C° 0.1 mm 4 mps 750 mmHg 73%
    13:00 +25°C° 0.1 mm 4 mps 750 mmHg 68%
    14:00 +26°C° 0.1 mm 4 mps 750 mmHg 62%
    15:00 +26°C° 0.1 mm 4 mps 750 mmHg 64%
    16:00 +26°C° 0.1 mm 4 mps 750 mmHg 67%
    17:00 +26°C° 0.1 mm 4 mps 750 mmHg 69%
    18:00 +23°C° 0.2 mm 4 mps 750 mmHg 74%
    19:00 +22°C° 0.2 mm 3 mps 750 mmHg 79%
    20:00 +20°C° 0.2 mm 3 mps 750 mmHg 84%
    21:00 +19°C° 0 mm 3 mps 750 mmHg 83%
    22:00 +18°C° 0 mm 3 mps 750 mmHg 82%
    23:00 +17°C° 0 mm 3 mps 750 mmHg 81%

    Day after tomorrow, 19 June, Wednesday

    Time Temperature Precipitation Wind Pressure Humidity
    00:00 +16°C° 0 mm 3 mps 750 mmHg 82%
    01:00 +15°C° 0 mm 2 mps 750 mmHg 84%
    02:00 +15°C° 0 mm 2 mps 750 mmHg 85%
    03:00 +15°C° 0 mm 2 mps 751 mmHg 85%
    04:00 +15°C° 0 mm 2 mps 751 mmHg 85%
    05:00 +15°C° 0 mm 2 mps 751 mmHg 85%
    06:00 +17°C° 0 mm 2 mps 751 mmHg 79%
    07:00 +19°C° 0 mm 2 mps 751 mmHg 73%
    08:00 +21°C° 0 mm 2 mps 751 mmHg 67%
    09:00 +23°C° 0 mm 2 mps 751 mmHg 61%
    10:00 +24°C° 0 mm 2 mps 751 mmHg 56%
    11:00 +26°C° 0 mm 2 mps 751 mmHg 50%
    12:00 +26°C° 0 mm 2 mps 751 mmHg 48%
    13:00 +27°C° 0 mm 2 mps 751 mmHg 47%
    14:00 +27°C° 0 mm 2 mps 750 mmHg 45%
    15:00 +27°C° 0 mm 2 mps 750 mmHg 49%
    16:00 +27°C° 0 mm 2 mps 750 mmHg 54%
    17:00 +26°C° 0 mm 2 mps 750 mmHg 58%
    18:00 +25°C° 0 mm 2 mps 750 mmHg 64%
    19:00 +23°C° 0 mm 2 mps 749 mmHg 70%
    20:00 +20°C° 0 mm 2 mps 749 mmHg 76%
    21:00 +19°C° 0 mm 2 mps 750 mmHg 76%
    22:00 +18°C° 0 mm 2 mps 750 mmHg 76%
    23:00 +17°C° 0 mm 2 mps 750 mmHg 76%

    20 June, Thursday

    Time Temperature Precipitation Wind Pressure Humidity
    00:00 +17°C° 0 mm 2 mps 750 mmHg 77%
    01:00 +17°C° 0 mm 2 mps 750 mmHg 78%
    02:00 +16°C° 0 mm 2 mps 750 mmHg 79%
    03:00 +16°C° 0 mm 2 mps 750 mmHg 80%
    04:00 +16°C° 0 mm 2 mps 750 mmHg 81%
    05:00 +16°C° 0 mm 2 mps 750 mmHg 82%
    06:00 +18°C° 0 mm 3 mps 750 mmHg 78%
    07:00 +20°C° 0 mm 3 mps 750 mmHg 75%
    08:00 +22°C° 0 mm 3 mps 750 mmHg 72%
    09:00 +24°C° 0 mm 3 mps 750 mmHg 67%
    10:00 +25°C° 0 mm 4 mps 750 mmHg 63%
    11:00 +27°C° 0 mm 4 mps 750 mmHg 58%
    12:00 +27°C° 0 mm 4 mps 749 mmHg 56%
    13:00 +28°C° 0 mm 4 mps 749 mmHg 55%
    14:00 +28°C° 0 mm 4 mps 749 mmHg 53%
    15:00 +28°C° 0 mm 3 mps 749 mmHg 55%
    16:00 +28°C° 0 mm 3 mps 749 mmHg 58%
    17:00 +28°C° 0 mm 3 mps 748 mmHg 60%
    18:00 +26°C° 0 mm 3 mps 748 mmHg 66%
    19:00 +25°C° 0 mm 3 mps 748 mmHg 72%
    20:00 +22°C° 0 mm 3 mps 748 mmHg 78%
    21:00 +22°C° 0 mm 3 mps 749 mmHg 79%
    22:00 +21°C° 0 mm 3 mps 749 mmHg 81%
    23:00 +21°C° 0 mm 3 mps 749 mmHg 82%

    21 June, Friday

    Time Temperature Precipitation Wind Pressure Humidity
    00:00 +20°C° 0 mm 3 mps 749 mmHg 84%
    01:00 +19°C° 0 mm 3 mps 749 mmHg 85%
    02:00 +19°C° 0 mm 3 mps 749 mmHg 87%
    03:00 +19°C° 0 mm 3 mps 749 mmHg 88%
    04:00 +19°C° 0 mm 3 mps 749 mmHg 88%
    05:00 +19°C° 0 mm 3 mps 749 mmHg 88%
    06:00 +20°C° 0 mm 3 mps 750 mmHg 84%
    07:00 +22°C° 0 mm 3 mps 750 mmHg 80%
    08:00 +23°C° 0 mm 4 mps 750 mmHg 75%
    09:00 +25°C° 0 mm 4 mps 750 mmHg 70%
    10:00 +27°C° 0 mm 4 mps 750 mmHg 64%
    11:00 +28°C° 0 mm 4 mps 750 mmHg 59%
    12:00 +28°C° 0 mm 4 mps 749 mmHg 58%
    13:00 +28°C° 0 mm 4 mps 749 mmHg 57%
    14:00 +29°C° 0 mm 4 mps 749 mmHg 56%
    15:00 +29°C° 0 mm 4 mps 749 mmHg 58%
    16:00 +29°C° 0 mm 4 mps 748 mmHg 60%
    17:00 +29°C° 0 mm 3 mps 748 mmHg 62%
    18:00 +27°C° 0 mm 3 mps 748 mmHg 67%
    19:00 +25°C° 0 mm 3 mps 748 mmHg 71%
    20:00 +24°C° 0 mm 3 mps 748 mmHg 76%
    21:00 +22°C° 0 mm 3 mps 748 mmHg 77%
    22:00 +21°C° 0 mm 3 mps 749 mmHg 78%
    23:00 +21°C° 0 mm 4 mps 749 mmHg 79%

    22 June, Saturday

    Time Temperature Precipitation Wind Pressure Humidity
    00:00 +20°C° 0 mm 4 mps 749 mmHg 80%
    01:00 +20°C° 0 mm 3 mps 749 mmHg 82%
    02:00 +20°C° 0 mm 3 mps 749 mmHg 83%
    03:00 +20°C° 0 mm 4 mps 749 mmHg 83%
    04:00 +20°C° 0 mm 4 mps 749 mmHg 84%
    05:00 +20°C° 0 mm 4 mps 749 mmHg 84%
    06:00 +21°C° 0 mm 4 mps 749 mmHg 80%
    07:00 +23°C° 0 mm 4 mps 749 mmHg 76%
    08:00 +25°C° 0 mm 4 mps 749 mmHg 72%
    09:00 +27°C° 0 mm 5 mps 749 mmHg 69%
    10:00 +28°C° 0 mm 5 mps 749 mmHg 65%
    11:00 +29°C° 0 mm 5 mps 749 mmHg 62%
    12:00 +29°C° 0.5 mm 5 mps 749 mmHg 62%
    13:00 +30°C° 0.5 mm 5 mps 749 mmHg 62%
    14:00 +30°C° 0.5 mm 4 mps 749 mmHg 62%
    15:00 +30°C° 0.4 mm 4 mps 749 mmHg 62%
    16:00 +30°C° 0.4 mm 3 mps 749 mmHg 63%
    17:00 +30°C° 0.4 mm 2 mps 749 mmHg 63%
    18:00 +28°C° 0.1 mm 2 mps 749 mmHg 67%
    19:00 +26°C° 0.1 mm 1 mps 749 mmHg 70%
    20:00 +24°C° 0.1 mm 1 mps 749 mmHg 74%
    21:00 +24°C° 0 mm 1 mps 749 mmHg 76%
    22:00 +23°C° 0 mm 1 mps 749 mmHg 79%
    23:00 +21°C° 0 mm 2 mps 749 mmHg 81%
    Show more